Location: Warszawa
(52.2500°N, 21.0000°E)
Time: 21:17:44
(UTC+02:00)

Vanguard 2 - Pass Details

Date: 01 February 2023
Orbit: 553 x 2927 km, 32.9° (Epoch: 27 March)

Event Time Altitude Azimuth Distance (km) Brightness Sun altitude
Exits shadow 03:54:36 22° 207° (SSW) 4,390 11.0 -31.0°
Drops below altitude 10° 04:02:38 10° 172° (S) 4,797 11.5 -29.8°
Sets 04:07:04 0° 158° (SSE) 5,431 12.0 -29.1°
